Pietro Novelli — IOTQ — position and weather

sailwx.info

Track history (hours):
 
Tides and Currents Weather Stations Pressure Air Temp Water Temp Dewpoint Dewpoint Depression Visibility Wind Speed Wind Dir Waves Ship Positions

Pietro Novelli

Last reported at 2014-Oct-30 07:28 UTC. Time now 2014-Oct-30 15:10 UTC.
Position N 38°25' E 014°59'.

Length 91 m; draft 3.8 m.

Type: Ship. MMSI: 247000300.

Date/timePositionNaut miles runAvg speedWind from/ knotsBaromVisibWave heightAir tempDewpointWater temp
2014-Oct-30 07:28N 38°25' E 014°59'1313.9
2014-Oct-30 06:33N 38°18' E 015°13'5 4.8
2014-Oct-30 05:33N 38°13' E 015°15'0 0.0
2014-Oct-29 18:33N 38°13' E 015°15'1212.3
2014-Oct-29 17:33N 38°22' E 015°04'4 0.4
2014-Oct-29 07:26N 38°24' E 015°00'1213.4
2014-Oct-29 06:33N 38°18' E 015°13'6 0.3
2014-Oct-28 07:06N 38°21' E 015°06'713.0
2014-Oct-28 06:33N 38°17' E 015°14'4 0.4
2014-Oct-27 19:09N 38°13' E 015°15'12 1.0
2014-Oct-27 07:07N 38°22' E 015°05'813.4
2014-Oct-27 06:33N 38°18' E 015°12'5 5.1
2014-Oct-27 05:33N 38°13' E 015°15'0 0.0
2014-Oct-26 18:33N 38°13' E 015°15'1312.2
2014-Oct-26 17:29N 38°23' E 015°03'2 0.2
2014-Oct-26 07:11N 38°22' E 015°06'812.7
2014-Oct-26 06:33N 38°17' E 015°14'4 0.3
2014-Oct-25 17:33N 38°13' E 015°15'0 0.0
2014-Oct-25 16:33N 38°13' E 015°15'0 0.0
2014-Oct-25 15:33N 38°13' E 015°15'0 0.0
2014-Oct-25 14:33N 38°13' E 015°15'0 0.0
2014-Oct-25 13:33N 38°13' E 015°15'0 0.0
2014-Oct-25 12:33N 38°13' E 015°15'0 0.0
2014-Oct-25 11:33N 38°13' E 015°15'0 0.0
2014-Oct-25 10:33N 38°13' E 015°15'0 0.0
2014-Oct-25 09:33N 38°13' E 015°15'0 0.0
2014-Oct-25 08:33N 38°13' E 015°15'0 0.0
2014-Oct-25 07:33N 38°13' E 015°15'0 0.0
2014-Oct-25 06:33N 38°13' E 015°15'0 0.0
2014-Oct-24 17:33N 38°13' E 015°15'1 0.5
2014-Oct-24 16:33N 38°13' E 015°16'9 8.4
2014-Oct-24 15:31N 38°20' E 015°09'10 8.4
2014-Oct-24 14:19N 38°26' E 014°58'1 0.3
2014-Oct-24 10:11N 38°27' E 014°58'9 4.6
2014-Oct-24 08:17N 38°22' E 015°06'912.1
2014-Oct-24 07:33N 38°16' E 015°15'3 3.0
2014-Oct-24 06:33N 38°13' E 015°15'0 0.0
2014-Oct-23 17:33N 38°13' E 015°15'0 0.0
2014-Oct-23 16:33N 38°13' E 015°15'0 0.0
2014-Oct-23 15:33N 38°13' E 015°15'0 0.0
2014-Oct-23 14:33N 38°13' E 015°14'0 0.0
2014-Oct-23 13:33N 38°13' E 015°15'0 0.0
2014-Oct-23 12:33N 38°13' E 015°15'0 0.0
2014-Oct-23 11:33N 38°13' E 015°15'0 0.0
2014-Oct-23 10:33N 38°13' E 015°15'0 0.0
2014-Oct-23 09:33N 38°13' E 015°15'0 0.0
2014-Oct-23 08:33N 38°13' E 015°15'0 0.0
2014-Oct-23 07:33N 38°13' E 015°15'0 0.0
2014-Oct-23 06:33N 38°13' E 015°15'0 0.0
2014-Oct-23 05:33N 38°13' E 015°15'0 0.0
2014-Oct-22 18:13N 38°13' E 015°15'0 0.0
2014-Oct-22 17:33N 38°13' E 015°15'0 0.0
2014-Oct-22 16:33N 38°13' E 015°15'0 0.0
2014-Oct-22 15:33N 38°13' E 015°15'5 4.7
2014-Oct-22 14:33N 38°17' E 015°12'7 0.8
2014-Oct-22 06:07N 38°22' E 015°06'713.3
2014-Oct-22 05:33N 38°18' E 015°13'5 4.8
2014-Oct-22 04:33N 38°13' E 015°15'0 0.0
2014-Oct-22 03:34N 38°13' E 015°15'0 0.0
2014-Oct-22 02:33N 38°13' E 015°15'0 0.0
2014-Oct-22 01:34N 38°13' E 015°15'0 0.0
2014-Oct-22 00:34N 38°13' E 015°15'0 0.0
2014-Oct-21 23:34N 38°13' E 015°15'0 0.0
2014-Oct-21 22:34N 38°13' E 015°15'0 0.0
2014-Oct-21 21:34N 38°13' E 015°15'0 0.0
2014-Oct-21 20:33N 38°13' E 015°15'0 0.0
2014-Oct-21 19:33N 38°13' E 015°15'0 0.0
2014-Oct-21 18:34N 38°13' E 015°15'1 0.5
2014-Oct-21 17:34N 38°13' E 015°15'14 1.2
2014-Oct-21 06:17N 38°23' E 015°03'1013.0
2014-Oct-21 05:32N 38°18' E 015°14'5 0.4
2014-Oct-20 18:33N 38°13' E 015°15'0 0.1
2014-Oct-20 17:33N 38°13' E 015°15'1211.7
2014-Oct-20 16:33N 38°22' E 015°05'  
Track history (hours):
 
Tides and Currents Weather Stations Pressure Air Temp Water Temp Dewpoint Dewpoint Depression Visibility Wind Speed Wind Dir Waves Ship Positions

Pietro Novelli

Last reported at 2014-Oct-30 07:28 UTC. Time now 2014-Oct-30 15:10 UTC.
Position N 38°25' E 014°59'.

Length 91 m; draft 3.8 m.

Type: Ship. MMSI: 247000300.

Date/timePositionNaut miles runAvg speedWind from/ knotsBaromVisibWave heightAir tempDewpointWater temp
2014-Oct-30 07:28N 38°25' E 014°59'1313.9
2014-Oct-30 06:33N 38°18' E 015°13'5 4.8
2014-Oct-30 05:33N 38°13' E 015°15'0 0.0
2014-Oct-29 18:33N 38°13' E 015°15'1212.3
2014-Oct-29 17:33N 38°22' E 015°04'4 0.4
2014-Oct-29 07:26N 38°24' E 015°00'1213.4
2014-Oct-29 06:33N 38°18' E 015°13'6 0.3
2014-Oct-28 07:06N 38°21' E 015°06'713.0
2014-Oct-28 06:33N 38°17' E 015°14'4 0.4
2014-Oct-27 19:09N 38°13' E 015°15'12 1.0
2014-Oct-27 07:07N 38°22' E 015°05'813.4
2014-Oct-27 06:33N 38°18' E 015°12'5 5.1
2014-Oct-27 05:33N 38°13' E 015°15'0 0.0
2014-Oct-26 18:33N 38°13' E 015°15'1312.2
2014-Oct-26 17:29N 38°23' E 015°03'2 0.2
2014-Oct-26 07:11N 38°22' E 015°06'812.7
2014-Oct-26 06:33N 38°17' E 015°14'4 0.3
2014-Oct-25 17:33N 38°13' E 015°15'0 0.0
2014-Oct-25 16:33N 38°13' E 015°15'0 0.0
2014-Oct-25 15:33N 38°13' E 015°15'0 0.0
2014-Oct-25 14:33N 38°13' E 015°15'0 0.0
2014-Oct-25 13:33N 38°13' E 015°15'0 0.0
2014-Oct-25 12:33N 38°13' E 015°15'0 0.0
2014-Oct-25 11:33N 38°13' E 015°15'0 0.0
2014-Oct-25 10:33N 38°13' E 015°15'0 0.0
2014-Oct-25 09:33N 38°13' E 015°15'0 0.0
2014-Oct-25 08:33N 38°13' E 015°15'0 0.0
2014-Oct-25 07:33N 38°13' E 015°15'0 0.0
2014-Oct-25 06:33N 38°13' E 015°15'0 0.0
2014-Oct-24 17:33N 38°13' E 015°15'1 0.5
2014-Oct-24 16:33N 38°13' E 015°16'9 8.4
2014-Oct-24 15:31N 38°20' E 015°09'10 8.4
2014-Oct-24 14:19N 38°26' E 014°58'1 0.3
2014-Oct-24 10:11N 38°27' E 014°58'9 4.6
2014-Oct-24 08:17N 38°22' E 015°06'912.1
2014-Oct-24 07:33N 38°16' E 015°15'3 3.0
2014-Oct-24 06:33N 38°13' E 015°15'0 0.0
2014-Oct-23 17:33N 38°13' E 015°15'0 0.0
2014-Oct-23 16:33N 38°13' E 015°15'0 0.0
2014-Oct-23 15:33N 38°13' E 015°15'0 0.0
2014-Oct-23 14:33N 38°13' E 015°14'0 0.0
2014-Oct-23 13:33N 38°13' E 015°15'0 0.0
2014-Oct-23 12:33N 38°13' E 015°15'0 0.0
2014-Oct-23 11:33N 38°13' E 015°15'0 0.0
2014-Oct-23 10:33N 38°13' E 015°15'0 0.0
2014-Oct-23 09:33N 38°13' E 015°15'0 0.0
2014-Oct-23 08:33N 38°13' E 015°15'0 0.0
2014-Oct-23 07:33N 38°13' E 015°15'0 0.0
2014-Oct-23 06:33N 38°13' E 015°15'0 0.0
2014-Oct-23 05:33N 38°13' E 015°15'0 0.0
2014-Oct-22 18:13N 38°13' E 015°15'0 0.0
2014-Oct-22 17:33N 38°13' E 015°15'0 0.0
2014-Oct-22 16:33N 38°13' E 015°15'0 0.0
2014-Oct-22 15:33N 38°13' E 015°15'5 4.7
2014-Oct-22 14:33N 38°17' E 015°12'7 0.8
2014-Oct-22 06:07N 38°22' E 015°06'713.3
2014-Oct-22 05:33N 38°18' E 015°13'5 4.8
2014-Oct-22 04:33N 38°13' E 015°15'0 0.0
2014-Oct-22 03:34N 38°13' E 015°15'0 0.0
2014-Oct-22 02:33N 38°13' E 015°15'0 0.0
2014-Oct-22 01:34N 38°13' E 015°15'0 0.0
2014-Oct-22 00:34N 38°13' E 015°15'0 0.0
2014-Oct-21 23:34N 38°13' E 015°15'0 0.0
2014-Oct-21 22:34N 38°13' E 015°15'0 0.0
2014-Oct-21 21:34N 38°13' E 015°15'0 0.0
2014-Oct-21 20:33N 38°13' E 015°15'0 0.0
2014-Oct-21 19:33N 38°13' E 015°15'0 0.0
2014-Oct-21 18:34N 38°13' E 015°15'1 0.5
2014-Oct-21 17:34N 38°13' E 015°15'14 1.2
2014-Oct-21 06:17N 38°23' E 015°03'1013.0
2014-Oct-21 05:32N 38°18' E 015°14'5 0.4
2014-Oct-20 18:33N 38°13' E 015°15'0 0.1
2014-Oct-20 17:33N 38°13' E 015°15'1211.7
2014-Oct-20 16:33N 38°22' E 015°05'  

Dump ship's entire track history